Dewpoint
51 51 53 52 52 53 51 53 52 49 47 29 38 22 19 20 15 19 27 30 27 16 11 22 21 16 22 24 23 23 20 17 18 17 21 19 19 17 17 16 12 9 14 16 17 17 9 13 6 8 11 12 15 20 21 21 23 20 15 11 19 21 5 1 6 10 11 11 9 12 7 10 6 8 8 7 6 2 1 2 5 3 -1 1 3 1 2
51 53 52 51 53 51 52 52 52 50 50 38 33 23 17 22 13 11 25 31 29 22 4 8 12 16 19 21 21 23 21 21 19 16 19 10 11 14 17 10 12 12 19 18 13 13 2 8 9 8 12 9 22 21 22 23 22 15 11 9 16 3 7 3 5 6 6 6 6 6 6 9 7 8 8 7 4 3 0 -0 -7 -2 -0 2 2 -1 2
52 51 52 51 51 52 51 50 48 47 48 38 31 16 21 19 18 27 26 23 24 9 17 17 14 20 13 13 9 14 14 22 23 15 16 22 14 10 9 15 17 15 20 18 21 21 7 7 9 8 8 9 22 21 20 19 23 25 25 27 24 4 5 3 -1 1 1 2 2 4 7 9 9 7 8 8 2 4 3 -0 -4 -3 2 3 3 2 4
51 51 51 51 51 52 51 46 45 46 49 43 31 25 10 15 -2 10 12 16 21 22 23 21 18 14 8 6 10 13 14 17 19 20 22 20 19 18 12 20 19 15 8 9 14 16 18 9 7 9 9 11 13 21 20 21 25 28 29 23 14 4 7 7 4 2 5 7 8 8 11 9 9 10 8 6 2 -0 -3 -3 -2 1 4 4 5 6 7
50 51 51 52 52 52 53 51 51 48 46 44 27 24 15 18 13 8 -2 14 14 17 20 19 20 12 17 6 4 4 14 12 15 23 7 21 22 23 20 20 9 9 8 7 14 17 17 13 10 8 8 9 11 14 21 22 27 28 27 21 6 2 5 9 8 8 10 9 8 9 12 9 8 6 6 5 3 -1 -4 -2 3 6 5 1 6 7 8
50 51 51 51 52 52 50 52 51 48 49 42 30 21 20 13 15 17 19 16 1 13 8 21 19 20 19 10 15 7 14 10 7 20 18 21 21 19 7 11 16 15 11 11 4 8 11 9 3 7 7 7 13 13 18 24 26 24 18 13 9 5 4 4 3 5 8 9 9 10 9 8 8 5 3 3 3 1 -3 -3 3 5 5 4 6 7 8
51 51 51 51 51 51 51 51 51 48 47 39 29 21 18 22 20 20 21 8 10 16 14 23 21 21 21 22 15 10 7 4 10 18 18 15 17 7 -2 2 14 21 20 12 9 13 6 8 4 7 7 7 11 7 8 23 18 18 15 13 1 5 3 2 2 9 9 9 9 9 8 8 5 2 2 3 4 2 3 3 5 7 7 7 7 8 8
50 51 51 51 51 52 51 51 50 48 45 36 28 22 18 14 14 11 19 21 18 19 18 20 17 14 17 7 10 15 8 4 12 21 12 1 2 15 9 8 13 22 21 16 9 11 8 7 6 8 10 10 9 7 10 10 15 16 14 10 10 7 7 9 -1 3 9 9 9 8 8 6 4 3 3 5 5 5 6 7 7 8 7 7 8 7 6
51 51 51 51 51 51 51 51 51 47 43 26 27 21 22 21 23 21 16 16 12 20 16 16 16 10 12 13 10 23 19 11 17 11 16 -1 1 17 6 11 21 22 22 20 17 19 15 13 15 15 13 9 14 9 10 19 16 14 11 8 9 6 8 -1 -5 4 7 7 7 7 6 5 3 3 5 5 5 5 7 6 7 7 7 8 6 4 6
51 51 51 51 51 51 51 51 48 49 43 23 24 18 22 25 24 24 21 13 18 13 16 17 10 1 6 11 11 15 14 17 15 11 18 24 23 17 18 19 17 16 15 14 21 21 21 21 21 20 18 19 18 19 15 20 18 13 13 11 8 3 5 7 -1 7 6 7 7 5 6 4 -5 -3 4 6 6 6 7 7 7 7 8 5 0 5 7
50 50 50 51 50 51 50 50 49 47 34 23 23 20 24 20 16 20 23 16 7 13 10 9 14 9 20 23 23 22 23 24 23 -1 -1 22 24 26 21 19 15 14 13 19 23 23 24 23 23 22 23 23 22 22 22 21 21 16 15 7 4 2 4 5 0 2 5 7 5 6 3 1 2 4 6 6 5 6 5 5 6 7 8 8 8 8 8
49 49 49 50 50 50 50 50 50 49 42 30 26 22 25 26 23 23 23 19 6 8 8 6 9 12 17 19 21 20 21 22 20 23 8 15 23 24 22 18 12 9 15 24 24 25 24 24 23 23 22 22 23 22 21 20 21 23 15 13 6 4 3 5 -5 3 4 3 6 5 -0 -2 4 5 6 6 7 6 6 6 7 9 9 9 9 8 8
49 49 49 49 50 49 49 50 50 48 42 30 29 23 25 28 20 19 19 18 4 9 8 14 11 19 19 23 23 23 22 22 22 22 20 21 20 26 25 20 14 15 26 26 25 23 18 13 13 20 19 13 14 19 20 20 20 18 16 13 11 6 7 4 0 -3 -2 0 -1 -1 2 5 4 6 7 7 6 7 7 7 7 8 9 9 8 9 8
48 49 49 49 49 49 49 49 49 47 43 37 31 28 26 27 21 21 22 18 15 10 8 14 15 19 21 22 21 20 21 17 17 20 18 25 21 23 26 26 25 27 26 23 18 16 11 6 -1 6 5 8 8 8 14 17 19 18 17 17 12 10 2 -3 3 -1 1 4 2 3 5 5 3 4 5 5 5 6 6 4 5 8 10 9 9 9 9
48 48 48 48 48 48 48 49 47 46 44 40 34 33 32 28 27 21 23 23 16 9 12 12 14 17 20 19 17 14 13 14 15 14 17 24 26 25 28 29 28 27 25 20 12 10 5 1 4 0 2 6 1 1 6 5 10 16 15 12 10 10 6 5 3 1 -2 -1 3 3 2 -1 -3 5 6 6 7 7 7 5 4 10 10 10 9 8 8
48 48 48 47 47 47 47 47 45 43 42 39 33 32 31 30 28 23 21 21 17 5 11 20 17 21 19 20 19 9 9 11 11 14 14 16 19 23 26 26 26 24 18 12 11 6 2 4 1 -0 1 -1 4 4 2 7 6 7 13 10 7 8 8 3 4 1 -0 -2 -2 -1 0 2 5 5 6 7 8 8 8 4 -1 11 10 9 9 9 8
47 47 47 47 47 46 45 45 45 45 44 43 29 29 29 30 30 25 21 23 24 11 21 23 26 23 19 14 13 10 18 11 15 7 7 10 16 22 24 26 26 24 18 12 11 7 9 3 -4 -2 -0 4 3 2 7 5 6 5 7 10 8 2 -3 -0 -2 -2 -2 -0 -1 -4 -5 2 5 6 7 7 8 8 7 -2 -2 9 10 10 10 9 6
48 47 47 47 47 47 47 48 47 46 43 39 31 29 27 29 29 29 25 24 22 18 26 29 29 20 14 16 14 15 20 19 18 15 14 14 19 19 20 23 17 22 20 9 8 6 -1 -1 3 -0 1 6 7 7 2 5 3 3 7 8 3 -2 2 -1 2 -1 2 7 -2 -3 4 7 6 6 7 8 9 7 1 -5 5 11 10 10 9 8 7
48 47 46 45 46 45 44 45 43 44 41 39 31 30 28 30 30 27 26 25 24 19 27 30 28 29 27 28 28 24 19 17 19 8 7 11 15 20 23 21 22 9 16 7 8 2 2 3 6 -4 0 5 7 2 7 4 2 7 8 7 4 -2 -3 -2 -5 -2 -1 -4 0 4 6 6 7 8 8 9 8 1 -1 8 12 11 11 10 7 8 8
47 47 47 47 45 45 46 45 45 44 45 45 32 25 26 30 29 28 26 23 19 25 26 28 29 30 31 31 27 25 22 14 17 13 13 8 15 21 15 8 15 16 14 13 7 6 3 2 3 5 1 -3 4 9 3 4 8 9 7 4 3 1 1 1 -1 1 2 2 4 3 2 2 8 8 9 9 7 7 10 11 12 12 11 9 8 8 9
46 46 46 46 47 46 43 42 41 40 40 38 34 26 26 28 31 29 28 26 25 21 19 27 28 30 30 27 27 28 20 15 15 9 17 14 18 17 5 5 10 9 5 4 5 4 3 4 3 3 7 3 7 8 2 0 3 5 9 3 4 4 2 -3 -4 -2 2 1 0 0 8 10 9 8 7 8 10 11 12 12 11 12 11 9 9 10 8
46 45 45 46 46 46 46 46 46 45 45 41 36 25 23 24 28 31 31 29 25 21 23 27 30 30 31 32 31 32 31 29 30 27 20 15 21 14 12 18 17 14 11 10 8 5 9 5 3 4 4 6 8 3 5 2 1 4 6 7 7 8 3 4 6 2 4 4 7 10 10 10 10 9 8 11 12 14 14 13 13 11 10 11 9 8 6
45 45 45 45 45 45 45 45 46 46 44 44 34 23 22 23 26 28 26 25 29 31 32 31 32 32 33 34 34 34 33 33 33 31 28 19 14 20 20 20 17 22 23 20 12 13 10 9 5 6 1 4 5 3 5 3 1 -2 4 9 14 13 10 8 4 7 7 8 8 10 9 10 10 10 13 12 12 14 14 14 12 12 12 9 7 6 4
44 44 45 44 44 44 43 43 42 41 43 42 31 23 24 25 24 24 22 26 24 20 21 29 21 21 22 27 29 31 32 32 32 32 33 28 16 14 18 22 20 23 22 22 18 13 10 6 7 4 4 9 3 3 3 3 1 4 3 8 2 6 7 5 5 7 7 5 9 9 9 9 9 9 12 13 14 14 15 13 12 13 9 6 5 4 -0
43 44 44 44 44 44 43 42 41 41 40 38 35 34 31 30 29 26 23 16 11 19 13 11 16 24 28 29 30 31 32 33 33 34 33 30 29 16 13 23 26 22 20 24 20 16 7 9 9 6 5 12 13 8 11 5 9 9 5 9 6 10 7 6 7 6 6 6 8 9 10 10 10 11 12 12 13 14 14 14 13 11 6 5 4 1 -4
43 43 43 43 43 44 43 43 44 45 44 41 38 29 27 26 29 28 24 24 22 19 17 13 18 27 29 27 27 29 33 32 32 33 32 32 31 29 27 29 27 24 24 22 16 12 8 7 1 1 6 8 13 5 5 10 9 11 9 11 10 9 9 4 7 6 7 8 9 9 9 10 10 12 12 14 14 15 14 12 11 6 3 3 1 -1 -3
44 43 42 42 43 42 42 41 41 40 39 37 32 31 31 30 31 30 20 21 24 10 17 11 12 18 28 25 29 33 33 32 33 32 32 33 32 31 30 29 27 23 18 15 14 9 7 5 9 9 5 8 7 5 6 9 11 6 4 10 11 8 8 8 9 8 7 7 9 9 8 8 9 11 13 14 15 14 11 10 7 3 2 1 -0 -1 -1
44 44 42 41 41 41 40 39 39 41 38 36 32 30 30 31 31 32 28 25 12 20 17 11 12 18 25 26 30 31 32 32 32 31 30 30 31 29 27 25 24 19 14 14 15 14 10 12 10 8 4 8 10 9 6 6 6 6 9 12 10 8 9 8 5 4 8 9 10 10 9 9 10 12 14 14 14 11 10 8 3 2 1 0 -0 -2 -2
44 44 44 42 39 40 41 43 42 41 40 34 27 25 23 29 31 35 32 28 24 22 22 20 20 16 10 19 28 28 29 31 30 29 29 29 28 28 27 25 22 17 11 10 8 7 6 9 10 9 11 16 10 6 5 6 4 4 7 9 9 10 10 9 9 8 9 10 12 12 11 10 11 13 13 14 11 10 8 5 2 1 0 1 -1 -2 -2
44 44 43 43 43 42 42 45 46 44 41 29 27 24 20 14 25 35 37 30 24 23 19 13 15 11 22 27 26 27 28 29 28 27 27 27 26 26 26 25 23 24 16 13 12 12 14 8 10 18 20 20 12 6 7 1 -0 8 11 11 10 14 12 11 10 8 8 11 12 12 12 13 13 13 13 13 10 8 5 3 1 0 1 1 -1 -2 -2
44 43 43 43 44 44 44 44 45 42 36 26 20 12 12 7 13 31 38 28 26 22 18 20 13 10 13 23 24 23 25 26 26 26 27 26 25 24 22 20 20 24 16 14 13 13 17 16 11 16 21 22 13 7 6 2 2 3 6 11 12 12 12 11 14 13 13 13 13 13 13 14 14 14 14 10 9 4 3 3 1 4 3 1 -1 -2 -3
44 44 43 42 42 42 42 42 43 38 26 22 17 14 14 16 16 32 36 35 28 24 20 14 8 9 9 19 19 24 26 26 25 24 21 24 16 21 19 21 18 23 27 12 15 14 11 15 12 11 14 24 14 -0 1 2 2 9 8 10 11 10 11 11 12 14 15 14 13 13 13 13 14 13 13 12 9 3 3 2 1 1 2 -0 -2 -3 -4
45 45 44 44 42 42 41 39 37 31 22 28 36 40 41 42 41 39 36 26 22 14 15 16 6 11 11 7 14 20 26 23 20 18 15 21 16 18 15 20 20 18 27 19 11 12 15 16 14 12 16 10 10 6 4 7 11 11 9 10 9 10 11 11 12 12 12 13 14 12 12 13 13 15 15 12 9 3 3 1 1 1 -1 -2 -4 -5 -5
46 45 46 45 45 42 43 41 40 38 36 26 21 19 22 41 36 36 27 25 18 14 16 13 4 3 4 12 12 15 21 16 11 16 11 21 19 16 12 17 19 15 14 16 17 19 16 13 10 9 13 8 9 5 6 10 12 13 11 10 11 12 12 12 12 12 12 13 14 14 15 15 15 15 13 10 9 3 3 2 1 -1 -1 -3 -5 -6 -6
46 45 44 45 45 46 45 41 24 29 22 26 21 23 26 40 38 35 27 17 7 9 12 11 14 9 6 6 5 15 20 16 10 14 11 13 19 12 16 11 12 11 9 19 16 14 8 9 11 8 7 5 7 6 11 11 12 12 12 11 10 11 11 11 11 12 12 14 14 15 15 15 13 12 12 11 9 4 3 2 1 -1 -2 -4 -5 -6 -7
45 45 42 43 42 42 32 30 25 24 19 14 15 26 40 41 38 27 27 23 16 13 12 6 12 4 3 1 3 6 20 14 15 12 12 15 14 14 13 11 10 14 15 13 8 8 8 16 9 6 2 6 9 11 11 12 12 12 11 10 11 11 11 11 11 12 13 14 14 14 13 13 12 12 12 10 6 4 3 1 -0 -0 -3 -4 -5 -6 -8
44 42 40 39 31 26 18 13 29 19 13 18 26 38 37 38 29 29 25 27 24 22 18 10 15 6 9 6 10 13 15 8 13 11 7 10 8 8 8 10 10 19 10 7 3 7 9 17 6 3 5 8 10 12 12 12 12 11 10 10 11 12 12 12 12 13 14 14 13 13 13 12 11 12 11 8 6 4 2 -1 -1 -1 -3 -5 -6 -7 -9
41 39 24 21 19 15 10 12 13 19 37 37 37 23 26 26 9 14 19 17 12 24 14 16 8 6 13 13 5 17 14 6 11 7 6 4 15 8 7 11 16 18 5 1 4 11 8 7 7 4 8 11 12 12 12 11 12 11 10 11 12 12 12 13 15 14 13 13 13 12 12 12 11 11 9 7 4 3 2 1 0 -0 -3 -5 -6 -7 -9
36 23 23 22 17 9 14 14 27 38 30 32 30 12 9 11 10 6 5 7 11 14 9 16 7 14 11 4 9 22 16 9 8 3 6 11 10 9 5 5 8 7 -0 1 3 10 4 -0 -1 -1 7 10 10 10 12 12 12 11 11 12 13 13 13 14 15 15 14 14 14 13 10 7 3 4 6 5 4 3 2 1 0 -1 -4 -6 -8 -10 -10
23 14 13 14 12 12 29 30 36 27 29 11 13 10 4 9 14 3 7 6 6 7 9 9 10 14 14 11 9 11 22 12 8 8 5 8 21 4 5 5 5 4 0 -2 6 2 2 1 -4 -1 7 10 9 9 12 12 12 12 12 13 13 14 14 15 16 16 15 15 15 14 12 10 9 8 7 5 3 2 0 -0 0 -3 -5 -7 -8 -10 -12
22 17 15 10 14 19 23 27 23 20 13 8 6 5 5 6 8 5 7 4 4 4 9 8 8 9 10 12 13 9 17 15 8 5 5 6 12 14 5 2 7 1 0 -2 5 -1 -2 -1 -4 2 10 12 10 11 11 11 11 11 12 13 14 15 15 16 16 16 16 15 14 14 11 7 6 5 5 3 2 -1 -2 -1 -1 -3 -7 -10 -12 -11 -10
23 13 13 25 26 27 20 16 15 9 7 8 3 2 3 3 6 7 6 4 4 5 8 9 6 8 10 14 13 11 9 10 8 7 6 5 18 4 1 0 0 -0 -1 0 -1 -4 -1 -0 -4 3 9 9 10 10 11 11 11 12 13 14 15 15 16 16 16 16 16 15 14 13 9 4 3 4 4 3 1 -1 -2 -6 -7 -10 -9 -9 -10 -11 -10
37 34 31 19 16 15 15 10 12 8 3 4 2 2 3 1 4 3 3 4 5 5 7 8 9 20 15 12 9 9 10 21 19 9 7 4 21 7 -1 -2 -1 -1 -0 -4 -2 -2 -1 -1 -1 8 9 9 10 11 11 11 11 13 13 14 15 16 16 16 16 15 15 14 13 12 9 3 1 1 -1 -2 -5 -7 -8 -7 -8 -11 -9 -10 -11 -11 -12
27 26 14 13 12 10 12 7 10 7 4 3 6 8 3 6 9 4 1 5 7 6 8 7 8 10 9 9 8 11 13 17 23 3 3 4 0 1 -2 -0 -1 2 -0 1 1 0 5 2 8 12 11 11 10 11 11 12 13 13 14 14 15 16 15 15 13 11 11 10 8 8 5 2 -1 -1 -4 -6 -6 -6 -8 -11 -11 -8 -9 -11 -12 -13 -13
13 13 16 11 10 11 9 7 9 6 6 5 13 3 5 5 10 4 4 8 8 7 8 7 9 9 8 11 6 9 18 6 14 7 5 2 -0 1 -1 -1 -2 -4 -1 -1 -4 -3 -2 4 10 10 8 7 8 9 11 12 13 14 14 14 15 15 14 14 14 14 13 11 9 5 4 3 3 2 -2 -4 -6 -7 -8 -9 -9 -7 -9 -12 -13 -14 -14
16 8 10 9 9 9 7 4 3 5 6 11 9 12 8 11 8 7 11 7 8 10 10 10 6 8 9 8 6 5 3 2 4 2 1 -1 -0 -1 -0 3 -2 0 -2 -4 -2 2 9 14 14 12 11 9 9 9 11 13 14 14 14 14 15 15 15 15 14 13 13 12 8 5 5 4 3 2 0 -2 -3 -6 -9 -9 -9 -9 -11 -13 -14 -14 -14
13 13 12 9 7 6 8 6 5 7 6 7 8 11 10 12 12 11 12 8 9 10 7 6 8 8 9 8 5 3 2 0 2 2 0 0 -0 0 4 -0 -0 -3 -2 -2 -1 4 8 10 9 10 11 11 11 11 12 13 14 15 15 15 15 15 15 15 14 14 14 13 9 6 5 4 3 2 -0 -2 -3 -3 -5 -8 -9 -11 -12 -13 -13 -13 -15
10 11 11 9 8 7 9 8 7 8 10 9 9 8 12 13 10 7 6 6 11 14 10 8 8 10 8 6 3 3 2 4 -0 1 1 -1 1 -2 -3 -2 -2 -4 -3 0 9 11 12 14 15 14 14 13 13 12 13 13 14 15 15 15 15 15 15 15 14 15 15 14 11 8 7 5 3 2 -1 -4 -5 -3 -4 -7 -10 -13 -17 -17 -17 -18 -18
15 9 10 8 6 8 8 9 8 9 10 8 7 8 9 10 11 9 8 6 13 9 11 8 7 6 5 5 2 2 2 3 1 -0 2 0 0 -1 -2 -2 -4 1 8 6 12 13 12 14 17 14 13 11 13 14 14 14 14 15 15 15 16 15 15 15 15 16 16 14 12 10 7 5 3 1 -1 -3 -6 -5 -5 -8 -11 -14 -16 -16 -16 -17 -18
14 13 13 12 10 11 8 6 9 13 10 6 8 9 7 9 9 10 10 13 8 9 11 14 13 9 5 3 2 -1 -1 -2 1 2 0 1 0 -2 -1 1 2 8 12 11 11 11 14 16 9 9 12 12 13 14 14 15 15 16 16 16 16 16 16 15 15 16 15 15 12 10 6 4 2 1 -1 -2 -3 -4 -7 -10 -12 -13 -15 -17 -17 -17 -18
11 11 11 10 13 17 13 11 12 11 15 12 8 11 12 12 13 11 12 11 8 7 8 7 6 4 6 1 1 2 3 1 1 2 3 2 -3 -1 1 7 14 13 13 16 18 18 18 16 14 14 12 12 14 14 16 17 16 16 16 16 15 15 15 15 15 15 15 14 12 7 5 3 3 1 -0 -1 -4 -8 -11 -9 -9 -11 -14 -16 -18 -18 -19
9 10 11 10 8 10 13 12 12 14 18 14 9 10 15 8 11 8 12 16 10 8 6 4 4 2 2 2 3 3 2 2 3 1 4 8 1 3 3 8 15 18 20 21 22 22 19 16 15 15 17 16 16 16 16 14 15 14 13 14 14 14 14 14 14 14 13 13 10 8 6 4 1 -1 -3 -5 -7 -9 -10 -10 -9 -10 -12 -13 -16 -18 -18